{"data":{"norad_id":66637,"epoch":"2026-09-20T10:23:15.191808Z","epoch_age_seconds":92250,"freshness":"FRESH","line1":"1 66637U 25271W   26263.43281472  .00016161  00000+0  48825-3 0  9999","line2":"2 66637  53.1600 310.3414 0001131  90.6674 269.4458 15.34410154 47455","mean_motion":15.34410154,"eccentricity":0.0001131,"inclination_deg":53.16,"raan_deg":310.3414,"arg_perigee_deg":90.6674,"mean_anomaly_deg":269.4458,"bstar":0.00048825,"rev_number":4745,"period_min":93.8471370413,"perigee_km":461.89936492783,"apogee_km":463.44675616352,"semimajor_km":6840.8100605457,"source":"CELESTRAK","updated_at":"2026-09-21T09:00:35.986203Z"}}